Lander, WY

7:13 AM MDT on May 30, 2017 (GMT -0600)
Hunt

Weather History for KLND - November, 2013

Change the Weather History Date:

Friday, November 8, 2013

  Actual Average Record
Temperature  
Mean Temperature 44 °F 36 °F  
Max Temperature 56 °F 48 °F 68 °F (1999)
Min Temperature 32 °F 24 °F -4 °F (1895)
Degree Days  
Heating Degree Days 21 30  
Month to date heating degree days 228 221  
Since 1 July heating degree days 1173 1082  
Cooling Degree Days 0 0  
Month to date cooling degree days 0 0  
Year to date cooling degree days 743 472  
Moisture  
Dew Point 22 °F    
Average Humidity 37    
Maximum Humidity 52    
Minimum Humidity 22    
Precipitation  
Precipitation 0.00 in 0.03 in 1.20 in (1919)
Month to date precipitation 0.00 0.26  
Year to date precipitation 14.72 11.48  
Snow  
Snow 0.00 in 0.40 in - ()
Month to date snowfall 0.0 3.2  
Since 1 July snowfall 26.0 15.7  
Since 1 September snowfall 26.0 15.7  
Snow Depth 0.00 in    
Sea Level Pressure  
Sea Level Pressure 29.80 in    
Wind  
Wind Speed 8 mph (NW)    
Max Wind Speed 35 mph    
Max Gust Speed 48 mph    
Visibility 10 miles    
Events      
T = Trace of Precipitation, MM = Missing Value Source: NWS Daily Summary

Daily Weather History Graph

Daily Weather History Graph

Search for Another Location

Airport or City:

Trip Planner

Search our weather history database for the weather conditions in past years. The results will help you decide how hot, cold, wet, or windy it might be!

Date:

Astronomy

Nov. 08, 2013 Rise Set
Actual Time 6:58 AM MST 4:58 PM MST
Civil Twilight 6:28 AM MST 5:28 PM MST
Nautical Twilight 5:54 AM MST 6:02 PM MST
Astronomical Twilight 5:21 AM MST 6:35 PM MST
Moon 11:56 AM MST (11/8) 10:23 PM MST (11/8)
Length of Visible Light 11h 00m
Length of Day
10h 00m
Waxing Crescent, 34% of the Moon is Illuminated
Nov 8
Waxing Crescent
Nov 9
First Quarter
Nov 17
Full
Nov 25
Last Quarter
Dec 2
New

Hourly Weather History & Observations

Time (MST) Temp. Windchill Dew Point Humidity Pressure Visibility Wind Dir Wind Speed Gust Speed Precip Events Conditions
12:07 AM 51.1 °F - 26.1 °F 38% 29.82 in 10.0 mi West 10.4 mph 44.9 mph N/A   Clear
12:53 AM 51.1 °F - 26.1 °F 38% 29.75 in 10.0 mi WNW 17.3 mph 33.4 mph N/A   Clear
1:53 AM 50.0 °F - 25.0 °F 38% 29.73 in 10.0 mi North 10.4 mph 19.6 mph N/A   Scattered Clouds
2:53 AM 46.9 °F - 25.0 °F 42% 29.73 in 10.0 mi NNW 9.2 mph - N/A   Scattered Clouds
3:53 AM 48.0 °F - 25.0 °F 41% 29.70 in 10.0 mi Calm Calm - N/A   Mostly Cloudy
4:53 AM 51.1 °F - 23.0 °F 33% 29.70 in 10.0 mi West 16.1 mph - N/A   Mostly Cloudy
5:53 AM 48.9 °F - 24.1 °F 38% 29.70 in 10.0 mi WNW 12.7 mph 33.4 mph N/A   Clear
6:53 AM 46.9 °F - 25.0 °F 42% 29.71 in 10.0 mi North 9.2 mph - N/A   Partly Cloudy
7:53 AM 44.1 °F 42.5 °F 27.0 °F 51% 29.79 in 10.0 mi Variable 3.5 mph - N/A   Clear
8:53 AM 50.0 °F - 26.1 °F 39% 29.77 in 10.0 mi West 9.2 mph - N/A   Partly Cloudy
9:53 AM 52.0 °F - 21.0 °F 30% 29.75 in 10.0 mi West 28.8 mph 44.9 mph N/A   Clear
10:53 AM 53.1 °F - 19.0 °F 26% 29.77 in 10.0 mi WNW 16.1 mph 25.3 mph N/A   Clear
11:53 AM 55.0 °F - 23.0 °F 29% 29.74 in 10.0 mi East 12.7 mph - N/A   Clear
12:53 PM 52.0 °F - 23.0 °F 32% 29.75 in 10.0 mi Variable 3.5 mph - N/A   Clear
1:53 PM 53.1 °F - 19.9 °F 27% 29.75 in 10.0 mi NNW 3.5 mph - N/A   Clear
2:53 PM 55.0 °F - 19.9 °F 25% 29.76 in 10.0 mi East 3.5 mph - N/A   Clear
3:53 PM 55.0 °F - 17.1 °F 23% 29.76 in 10.0 mi WNW 8.1 mph - N/A   Clear
4:53 PM 48.9 °F - 19.0 °F 31% 29.81 in 10.0 mi West 9.2 mph - N/A   Mostly Cloudy
5:53 PM 45.0 °F 40.6 °F 18.0 °F 34% 29.86 in 10.0 mi NNW 8.1 mph - N/A   Overcast
6:53 PM 43.0 °F - 17.1 °F 35% 29.89 in 10.0 mi Calm Calm - N/A   Partly Cloudy
7:53 PM 39.9 °F - 18.0 °F 41% 29.93 in 10.0 mi Calm Calm - N/A   Clear
8:53 PM 41.0 °F - 18.0 °F 40% 29.92 in 10.0 mi Calm Calm - N/A   Clear
9:53 PM 35.1 °F - 19.9 °F 54% 29.97 in 10.0 mi Calm Calm - N/A   Clear
10:53 PM 37.0 °F 33.3 °F 19.9 °F 50% 29.98 in 10.0 mi Variable 4.6 mph - N/A   Partly Cloudy
11:53 PM 35.1 °F 28.6 °F 21.9 °F 59% 29.97 in 10.0 mi SE 8.1 mph - N/A   Overcast